When you browse on this site, cookies collect data to enhance your experience and personalize the content and advertising you see.
Visit our Privacy Policy to learn more. By continuing to use the site, you agree to this use of cookies and data.

Meteo pe oră la Dundee

Astăzi, 2 Iulie, Joi

Timp Temperatura Precipitaţii Vânt Presiune Umiditate
00:00 +10°C° 0 mm 1 m/s 745 mmHg 91%
01:00 +10°C° 0 mm 1 m/s 745 mmHg 91%
02:00 +10°C° 0 mm 1 m/s 745 mmHg 90%
03:00 +10°C° 0 mm 1 m/s 745 mmHg 90%
04:00 +10°C° 0 mm 1 m/s 746 mmHg 89%
05:00 +10°C° 0 mm 1 m/s 746 mmHg 88%
06:00 +11°C° 0 mm 1 m/s 746 mmHg 87%
07:00 +11°C° 0 mm 1 m/s 746 mmHg 84%
08:00 +12°C° 0 mm 2 m/s 747 mmHg 81%
09:00 +12°C° 0 mm 2 m/s 747 mmHg 78%
10:00 +13°C° 0 mm 2 m/s 747 mmHg 76%
11:00 +12°C° 0 mm 3 m/s 747 mmHg 75%
12:00 +13°C° 0 mm 3 m/s 747 mmHg 73%
13:00 +13°C° 0.1 mm 3 m/s 747 mmHg 74%
14:00 +14°C° 0.1 mm 3 m/s 747 mmHg 75%
15:00 +14°C° 0.1 mm 3 m/s 747 mmHg 76%
16:00 +14°C° 0.2 mm 4 m/s 747 mmHg 78%
17:00 +14°C° 0.2 mm 4 m/s 747 mmHg 81%
18:00 +14°C° 0.2 mm 4 m/s 747 mmHg 83%
19:00 +13°C° 0.2 mm 3 m/s 747 mmHg 85%
20:00 +12°C° 0.2 mm 3 m/s 747 mmHg 87%
21:00 +11°C° 0.2 mm 3 m/s 746 mmHg 90%
22:00 +10°C° 0 mm 3 m/s 746 mmHg 89%
23:00 +10°C° 0 mm 3 m/s 746 mmHg 88%

Mâine, 3 Iulie, Vineri

Timp Temperatura Precipitaţii Vânt Presiune Umiditate
00:00 +9°C° 0 mm 3 m/s 746 mmHg 88%
01:00 +9°C° 0.1 mm 3 m/s 745 mmHg 89%
02:00 +9°C° 0.1 mm 3 m/s 745 mmHg 89%
03:00 +7°C° 0.1 mm 4 m/s 744 mmHg 90%
04:00 +8°C° 0.5 mm 3 m/s 744 mmHg 92%
05:00 +8°C° 0.5 mm 2 m/s 744 mmHg 93%
06:00 +9°C° 0.5 mm 1 m/s 743 mmHg 95%
07:00 +8°C° 1.3 mm 2 m/s 743 mmHg 96%
08:00 +8°C° 1.3 mm 2 m/s 743 mmHg 97%
09:00 +9°C° 1.3 mm 2 m/s 742 mmHg 97%
10:00 +9°C° 1 mm 2 m/s 742 mmHg 97%
11:00 +10°C° 1 mm 2 m/s 742 mmHg 97%
12:00 +10°C° 1 mm 2 m/s 741 mmHg 97%
13:00 +10°C° 0.4 mm 2 m/s 741 mmHg 97%
14:00 +12°C° 0.4 mm 2 m/s 741 mmHg 96%
15:00 +12°C° 0.4 mm 2 m/s 741 mmHg 96%
16:00 +11°C° 0.1 mm 3 m/s 741 mmHg 95%
17:00 +12°C° 0.1 mm 3 m/s 741 mmHg 93%
18:00 +12°C° 0.1 mm 4 m/s 742 mmHg 91%
19:00 +12°C° 0 mm 3 m/s 742 mmHg 92%
20:00 +11°C° 0 mm 3 m/s 742 mmHg 92%
21:00 +10°C° 0 mm 3 m/s 743 mmHg 92%
22:00 +10°C° 0 mm 3 m/s 743 mmHg 92%
23:00 +9°C° 0 mm 3 m/s 743 mmHg 93%

Poimâine, 4 Iulie, Sâmbătă

Timp Temperatura Precipitaţii Vânt Presiune Umiditate
00:00 +9°C° 0 mm 2 m/s 743 mmHg 93%
01:00 +9°C° 0.1 mm 2 m/s 743 mmHg 94%
02:00 +9°C° 0.1 mm 2 m/s 742 mmHg 94%
03:00 +10°C° 0.1 mm 1 m/s 742 mmHg 95%
04:00 +10°C° 0.8 mm 1 m/s 742 mmHg 95%
05:00 +10°C° 0.8 mm 1 m/s 741 mmHg 96%
06:00 +10°C° 0.8 mm 1 m/s 741 mmHg 97%
07:00 +11°C° 1.1 mm 1 m/s 741 mmHg 97%
08:00 +11°C° 1.1 mm 1 m/s 740 mmHg 98%
09:00 +11°C° 1.1 mm 1 m/s 740 mmHg 98%
10:00 +11°C° 0.2 mm 1 m/s 740 mmHg 96%
11:00 +12°C° 0.2 mm 1 m/s 741 mmHg 95%
12:00 +13°C° 0.2 mm 1 m/s 741 mmHg 93%
13:00 +15°C° 0 mm 2 m/s 741 mmHg 88%
14:00 +16°C° 0 mm 3 m/s 741 mmHg 83%
15:00 +18°C° 0 mm 4 m/s 741 mmHg 78%
16:00 +18°C° 0.1 mm 4 m/s 741 mmHg 78%
17:00 +16°C° 0.1 mm 5 m/s 741 mmHg 78%
18:00 +16°C° 0.1 mm 5 m/s 742 mmHg 77%
19:00 +14°C° 0 mm 5 m/s 742 mmHg 81%
20:00 +13°C° 0 mm 4 m/s 742 mmHg 84%
21:00 +11°C° 0 mm 4 m/s 742 mmHg 88%
22:00 +10°C° 0.2 mm 3 m/s 742 mmHg 90%
23:00 +10°C° 0.2 mm 3 m/s 741 mmHg 91%

5 Iulie, Duminică

Timp Temperatura Precipitaţii Vânt Presiune Umiditate
00:00 +10°C° 0.2 mm 2 m/s 741 mmHg 93%
01:00 +10°C° 1.4 mm 2 m/s 740 mmHg 95%
02:00 +10°C° 1.4 mm 2 m/s 739 mmHg 96%
03:00 +11°C° 1.4 mm 1 m/s 739 mmHg 98%
04:00 +11°C° 1.4 mm 1 m/s 738 mmHg 97%
05:00 +10°C° 1.4 mm 1 m/s 738 mmHg 97%
06:00 +9°C° 1.4 mm 2 m/s 738 mmHg 97%
07:00 +11°C° 0.1 mm 3 m/s 738 mmHg 90%
08:00 +12°C° 0.1 mm 4 m/s 739 mmHg 83%
09:00 +13°C° 0.1 mm 5 m/s 739 mmHg 76%
10:00 +14°C° 0.1 mm 5 m/s 740 mmHg 73%
11:00 +14°C° 0.1 mm 6 m/s 740 mmHg 70%
12:00 +15°C° 0.1 mm 7 m/s 740 mmHg 67%
13:00 +15°C° 0.1 mm 7 m/s 740 mmHg 69%
14:00 +14°C° 0.1 mm 7 m/s 741 mmHg 70%
15:00 +14°C° 0.1 mm 7 m/s 741 mmHg 71%
16:00 +14°C° 0.1 mm 7 m/s 741 mmHg 73%
17:00 +12°C° 0.1 mm 7 m/s 741 mmHg 75%
18:00 +12°C° 0.1 mm 7 m/s 741 mmHg 77%
19:00 +11°C° 0 mm 6 m/s 741 mmHg 81%
20:00 +10°C° 0 mm 5 m/s 741 mmHg 85%
21:00 +8°C° 0 mm 4 m/s 741 mmHg 89%
22:00 +8°C° 0 mm 4 m/s 740 mmHg 91%
23:00 +8°C° 0 mm 4 m/s 740 mmHg 92%

6 Iulie, Luni

Timp Temperatura Precipitaţii Vânt Presiune Umiditate
00:00 +7°C° 0 mm 4 m/s 740 mmHg 94%
01:00 +7°C° 0.1 mm 4 m/s 740 mmHg 94%
02:00 +8°C° 0.1 mm 3 m/s 740 mmHg 94%
03:00 +8°C° 0.1 mm 3 m/s 740 mmHg 94%
04:00 +7°C° 0 mm 4 m/s 741 mmHg 92%
05:00 +8°C° 0 mm 4 m/s 741 mmHg 89%
06:00 +10°C° 0 mm 4 m/s 742 mmHg 87%
07:00 +10°C° 0.1 mm 5 m/s 743 mmHg 83%
08:00 +12°C° 0.1 mm 5 m/s 744 mmHg 78%
09:00 +13°C° 0.1 mm 5 m/s 745 mmHg 74%
10:00 +13°C° 0.4 mm 5 m/s 746 mmHg 74%
11:00 +14°C° 0.4 mm 5 m/s 747 mmHg 73%
12:00 +14°C° 0.4 mm 5 m/s 748 mmHg 73%
13:00 +14°C° 0.2 mm 5 m/s 748 mmHg 71%
14:00 +14°C° 0.2 mm 4 m/s 749 mmHg 69%
15:00 +14°C° 0.2 mm 3 m/s 750 mmHg 67%
16:00 +14°C° 0.3 mm 3 m/s 750 mmHg 69%
17:00 +14°C° 0.3 mm 3 m/s 751 mmHg 70%
18:00 +13°C° 0.3 mm 3 m/s 752 mmHg 71%
19:00 +12°C° 0.1 mm 3 m/s 752 mmHg 74%
20:00 +10°C° 0.1 mm 2 m/s 753 mmHg 77%
21:00 +8°C° 0.1 mm 2 m/s 753 mmHg 79%
22:00 +8°C° 0 mm 2 m/s 753 mmHg 81%
23:00 +7°C° 0 mm 2 m/s 754 mmHg 83%

7 Iulie, Marţi

Timp Temperatura Precipitaţii Vânt Presiune Umiditate
00:00 +7°C° 0 mm 1 m/s 754 mmHg 84%
01:00 +6°C° 0 mm 2 m/s 754 mmHg 86%
02:00 +5°C° 0 mm 2 m/s 754 mmHg 88%
03:00 +5°C° 0 mm 2 m/s 754 mmHg 89%
04:00 +5°C° 0 mm 3 m/s 754 mmHg 87%
05:00 +7°C° 0 mm 3 m/s 754 mmHg 85%
06:00 +8°C° 0 mm 3 m/s 754 mmHg 83%
07:00 +10°C° 0 mm 3 m/s 755 mmHg 79%
08:00 +11°C° 0 mm 4 m/s 755 mmHg 74%
09:00 +13°C° 0 mm 4 m/s 755 mmHg 69%
10:00 +13°C° 0 mm 4 m/s 755 mmHg 67%
11:00 +14°C° 0 mm 4 m/s 755 mmHg 66%
12:00 +15°C° 0 mm 4 m/s 755 mmHg 65%
13:00 +15°C° 0.1 mm 4 m/s 755 mmHg 65%
14:00 +15°C° 0.1 mm 5 m/s 755 mmHg 65%
15:00 +15°C° 0.1 mm 5 m/s 755 mmHg 66%
16:00 +15°C° 0 mm 5 m/s 755 mmHg 68%
17:00 +14°C° 0 mm 5 m/s 755 mmHg 71%
18:00 +14°C° 0 mm 5 m/s 755 mmHg 73%
19:00 +12°C° 0 mm 4 m/s 755 mmHg 76%
20:00 +11°C° 0 mm 4 m/s 755 mmHg 79%
21:00 +8°C° 0 mm 4 m/s 755 mmHg 82%
22:00 +8°C° 0 mm 4 m/s 755 mmHg 84%
23:00 +8°C° 0 mm 3 m/s 755 mmHg 86%
Arată mai mult